Location: Vsetin
(49.3330°N, 18.0000°E)
Time: 23:14:20
(UTC+02:00)

ISS - Visible Passes

Search period start: 18 October 2019 00:00
Search period end: 27 October 2019 23:00
Orbit: 411 x 421 km, 51.6° (Epoch: 19 October)

Date Brightness Start Highest point End Pass type
(mag) Time Alt. Az. Time Alt. Az. Time Alt. Az.
25 Oct -0.9 06:02:34 10° S 06:04:40 16° SE 06:06:45 10° E visible
26 Oct -2.8 06:49:07 10° SW 06:52:22 47° SSE 06:55:37 10° ENE visible
27 Oct -2.2 05:00:52 10° SSW 05:03:51 32° SSE 05:06:54 10° E visible
